| time (UTC) | temp C | wind direction | speed KPH | gust KPH | rain 1hr cm | rain 24hr cm | rain mn cm | humidity % | barometer mb |
| 20260510201005 | 20 | 265 | 9.7 | 20.9 | 0.00 | 0.33 | 0.00 | 58 | 1012.5 |
| 20260510200505 | 21 | 295 | 8.0 | 22.5 | 0.00 | 0.36 | 0.00 | 57 | 1012.5 |
| 20260510200005 | 21 | 280 | 9.7 | 24.1 | 0.00 | 0.38 | 0.00 | 57 | 1012.5 |
| 20260510195505 | 21 | 325 | 4.8 | 19.3 | 0.00 | 0.43 | 0.00 | 56 | 1012.5 |
| 20260510194504 | 21 | 287 | 4.8 | 22.5 | 0.00 | 0.46 | 0.00 | 55 | 1012.5 |
| 20260510194004 | 22 | 272 | 8.0 | 14.5 | 0.00 | 0.48 | 0.00 | 54 | 1012.5 |
| 20260510193504 | 22 | 244 | 6.4 | 12.9 | 0.00 | 0.48 | 0.00 | 54 | 1012.5 |
| 20260510193004 | 22 | 274 | 4.8 | 19.3 | 0.00 | 0.48 | 0.00 | 52 | 1012.6 |
| 20260510192004 | 22 | 283 | 4.8 | 9.7 | 0.00 | 0.51 | 0.00 | 52 | 1012.5 |
| 20260510191004 | 22 | 282 | 6.4 | 19.3 | 0.00 | 0.51 | 0.00 | 51 | 1012.4 |
| 20260510190504 | 22 | 255 | 4.8 | 12.9 | 0.00 | 0.51 | 0.00 | 51 | 1012.5 |
| 20260510190004 | 22 | 269 | 9.7 | 19.3 | 0.00 | 0.51 | 0.00 | 51 | 1012.5 |
| 20260510185504 | 22 | 314 | 4.8 | 14.5 | 0.00 | 0.51 | 0.00 | 53 | 1012.5 |
| 20260510185004 | 22 | 271 | 11.3 | 22.5 | 0.00 | 0.51 | 0.00 | 51 | 1012.5 |
| 20260510184504 | 22 | 276 | 9.7 | 27.4 | 0.00 | 0.51 | 0.00 | 54 | 1012.4 |
| 20260510184004 | 22 | 275 | 8.0 | 25.7 | 0.00 | 0.51 | 0.00 | 53 | 1012.5 |
| 20260510183504 | 22 | 263 | 9.7 | 24.1 | 0.00 | 0.53 | 0.00 | 53 | 1012.7 |
| 20260510182504 | 22 | 271 | 11.3 | 19.3 | 0.00 | 0.53 | 0.00 | 55 | 1012.7 |
| 20260510182004 | 22 | 282 | 4.8 | 12.9 | 0.00 | 0.53 | 0.00 | 57 | 1012.7 |
| 20260510181504 | 22 | 310 | 8.0 | 14.5 | 0.00 | 0.53 | 0.00 | 57 | 1012.6 |
| 20260510181004 | 22 | 286 | 4.8 | 25.7 | 0.00 | 0.53 | 0.00 | 59 | 1012.6 |
| 20260510180504 | 22 | 292 | 6.4 | 20.9 | 0.00 | 0.53 | 0.00 | 58 | 1012.8 |
| 20260510180004 | 22 | 287 | 8.0 | 19.3 | 0.00 | 0.53 | 0.00 | 57 | 1012.6 |
| 20260510175504 | 22 | 279 | 11.3 | 19.3 | 0.00 | 0.53 | 0.00 | 57 | 1012.6 |
| 20260510175004 | 22 | 274 | 6.4 | 19.3 | 0.00 | 0.53 | 0.00 | 57 | 1012.5 |
| 20260510174505 | 22 | 287 | 9.7 | 20.9 | 0.00 | 0.53 | 0.00 | 57 | 1012.5 |
| 20260510174004 | 22 | 270 | 9.7 | 20.9 | 0.00 | 0.53 | 0.00 | 57 | 1012.3 |
| 20260510173504 | 22 | 266 | 8.0 | 16.1 | 0.00 | 0.53 | 0.00 | 60 | 1012.4 |
| 20260510172504 | 22 | 261 | 9.7 | 19.3 | 0.00 | 0.53 | 0.00 | 57 | 1012.2 |
| 20260510172004 | 22 | 235 | 9.7 | 20.9 | 0.00 | 0.53 | 0.00 | 58 | 1012.2 |
| 20260510171504 | 22 | 263 | 8.0 | 16.1 | 0.00 | 0.53 | 0.00 | 60 | 1012.2 |
| 20260510171004 | 22 | 280 | 4.8 | 14.5 | 0.00 | 0.53 | 0.00 | 62 | 1012.2 |
| 20260510170505 | 22 | 251 | 4.8 | 12.9 | 0.00 | 0.53 | 0.00 | 61 | 1012.2 |
| 20260510170004 | 22 | 261 | 3.2 | 9.7 | 0.00 | 0.53 | 0.00 | 63 | 1012.2 |
| 20260510165004 | 21 | 246 | 3.2 | 12.9 | 0.00 | 0.53 | 0.00 | 66 | 1012.4 |
| 20260510164504 | 21 | 286 | 8.0 | 14.5 | 0.00 | 0.53 | 0.00 | 65 | 1012.3 |
| 20260510164004 | 21 | 283 | 4.8 | 19.3 | 0.00 | 0.53 | 0.00 | 66 | 1012.4 |
| 20260510163504 | 21 | 262 | 9.7 | 16.1 | 0.00 | 0.53 | 0.00 | 67 | 1012.5 |
| 20260510163004 | 21 | 239 | 6.4 | 12.9 | 0.00 | 0.53 | 0.00 | 68 | 1012.6 |
| 20260510162504 | 21 | 236 | 4.8 | 14.5 | 0.00 | 0.53 | 0.00 | 68 | 1012.6 |
| 20260510162004 | 21 | 253 | 6.4 | 14.5 | 0.00 | 0.53 | 0.00 | 69 | 1012.5 |
| 20260510161504 | 21 | 222 | 9.7 | 19.3 | 0.00 | 0.53 | 0.00 | 69 | 1012.6 |
| 20260510160504 | 20 | 220 | 1.6 | 11.3 | 0.00 | 0.53 | 0.00 | 74 | 1012.7 |
| 20260510160004 | 20 | 289 | 4.8 | 9.7 | 0.00 | 0.53 | 0.00 | 75 | 1012.8 |
| 20260510155504 | 20 | 184 | 1.6 | 4.8 | 0.00 | 0.53 | 0.00 | 77 | 1012.8 |
| 20260510155005 | 19 | 228 | 1.6 | 11.3 | 0.00 | 0.53 | 0.00 | 76 | 1012.8 |
| 20260510154505 | 19 | 228 | 6.4 | 14.5 | 0.00 | 0.56 | 0.00 | 76 | 1013.0 |
| 20260510153504 | 18 | 142 | 0.0 | 3.2 | 0.00 | 0.56 | 0.00 | 79 | 1012.9 |
| 20260510153004 | 18 | 205 | 0.0 | 8.0 | 0.00 | 0.56 | 0.00 | 79 | 1012.9 |
| 20260510152504 | 18 | 318 | 3.2 | 4.8 | 0.00 | 0.56 | 0.00 | 79 | 1013.0 |
| 20260510152004 | 18 | 245 | 4.8 | 11.3 | 0.00 | 0.56 | 0.00 | 78 | 1012.9 |
| 20260510151504 | 18 | 245 | 1.6 | 4.8 | 0.00 | 0.56 | 0.00 | 80 | 1012.9 |
| 20260510151005 | 17 | 195 | 3.2 | 4.8 | 0.00 | 0.56 | 0.00 | 81 | 1012.9 |
| 20260510150504 | 17 | 236 | 1.6 | 3.2 | 0.00 | 0.56 | 0.00 | 82 | 1012.8 |
| 20260510150004 | 17 | 83 | 1.6 | 8.0 | 0.00 | 0.56 | 0.00 | 83 | 1012.9 |
| 20260510145504 | 17 | 258 | 3.2 | 4.8 | 0.00 | 0.56 | 0.00 | 84 | 1012.8 |
| 20260510145004 | 16 | 239 | 1.6 | 4.8 | 0.00 | 0.56 | 0.00 | 85 | 1013.0 |
| 20260510144504 | 16 | 313 | 0.0 | 4.8 | 0.00 | 0.56 | 0.00 | 85 | 1013.1 |
| 20260510142504 | 15 | 236 | 1.6 | 4.8 | 0.00 | 0.56 | 0.00 | 83 | 1012.9 |
| 20260510142004 | 14 | 235 | 6.4 | 9.7 | 0.00 | 0.56 | 0.00 | 83 | 1012.9 |
| 20260510141504 | 14 | 293 | 0.0 | 3.2 | 0.00 | 0.56 | 0.00 | 82 | 1012.9 |
| 20260510141004 | 13 | 293 | 0.0 | 3.2 | 0.00 | 0.56 | 0.00 | 83 | 1012.9 |
| 20260510140504 | 13 | 297 | 0.0 | 3.2 | 0.00 | 0.56 | 0.00 | 83 | 1012.8 |
| 20260510135504 | 13 | 298 | 3.2 | 4.8 | 0.00 | 0.56 | 0.00 | 83 | 1012.7 |
| 20260510135004 | 12 | 224 | 0.0 | 4.8 | 0.00 | 0.56 | 0.00 | 83 | 1012.7 |
| 20260510134504 | 12 | 223 | 3.2 | 4.8 | 0.00 | 0.56 | 0.00 | 83 | 1012.8 |
| 20260510134004 | 12 | 234 | 1.6 | 4.8 | 0.00 | 0.56 | 0.00 | 83 | 1012.9 |
| 20260510133504 | 12 | 236 | 1.6 | 4.8 | 0.00 | 0.56 | 0.00 | 83 | 1012.8 |
| 20260510133004 | 12 | 276 | 1.6 | 11.3 | 0.00 | 0.56 | 0.00 | 83 | 1012.8 |
| 20260510132504 | 12 | 291 | 4.8 | 11.3 | 0.00 | 0.56 | 0.00 | 83 | 1012.9 |
| 20260510132004 | 12 | 260 | 3.2 | 4.8 | 0.00 | 0.56 | 0.00 | 83 | 1012.9 |
| 20260510131504 | 12 | 256 | 3.2 | 9.7 | 0.00 | 0.56 | 0.00 | 83 | 1012.9 |
| 20260510131004 | 12 | 227 | 1.6 | 4.8 | 0.00 | 0.56 | 0.00 | 83 | 1012.8 |
| 20260510130504 | 11 | 215 | 3.2 | 9.7 | 0.00 | 0.56 | 0.00 | 83 | 1012.7 |
| 20260510125504 | 11 | 285 | 1.6 | 4.8 | 0.00 | 0.56 | 0.00 | 83 | 1012.6 |
| 20260510125004 | 11 | 286 | 1.6 | 3.2 | 0.00 | 0.56 | 0.00 | 83 | 1012.5 |
| 20260510123504 | 11 | 288 | 1.6 | 3.2 | 0.00 | 0.56 | 0.00 | 83 | 1012.3 |
| 20260510123004 | 11 | 289 | 0.0 | 3.2 | 0.00 | 0.56 | 0.00 | 83 | 1012.3 |
| 20260510122504 | 11 | 289 | 0.0 | 3.2 | 0.00 | 0.56 | 0.00 | 83 | 1012.3 |
| 20260510122004 | 11 | 289 | 0.0 | 1.6 | 0.00 | 0.56 | 0.00 | 83 | 1012.3 |
| 20260510121504 | 11 | 289 | 0.0 | 1.6 | 0.00 | 0.56 | 0.00 | 83 | 1012.3 |
| 20260510121004 | 11 | 289 | 0.0 | 3.2 | 0.00 | 0.56 | 0.00 | 83 | 1012.4 |
| 20260510120504 | 11 | 289 | 0.0 | 1.6 | 0.00 | 0.56 | 0.00 | 83 | 1012.3 |
| 20260510115004 | 10 | 290 | 0.0 | 1.6 | 0.00 | 0.56 | 0.00 | 83 | 1011.9 |
| 20260510114004 | 10 | 290 | 0.0 | 0.0 | 0.00 | 0.56 | 0.00 | 83 | 1012.1 |
| 20260510113504 | 10 | 290 | 0.0 | 1.6 | 0.00 | 0.56 | 0.00 | 83 | 1012.0 |
| 20260510113004 | 10 | 290 | 0.0 | 1.6 | 0.00 | 0.56 | 0.00 | 83 | 1012.0 |
| 20260510112004 | 10 | 290 | 0.0 | 3.2 | 0.00 | 0.56 | 0.00 | 83 | 1011.9 |
| 20260510111005 | 10 | 290 | 0.0 | 1.6 | 0.00 | 0.56 | 0.00 | 83 | 1011.8 |
| 20260510110504 | 10 | 290 | 0.0 | 0.0 | 0.00 | 0.56 | 0.00 | 83 | 1011.8 |
| 20260510110005 | 10 | 290 | 0.0 | 1.6 | 0.00 | 0.56 | 0.00 | 83 | 1011.7 |
| 20260510105504 | 10 | 290 | 0.0 | 0.0 | 0.00 | 0.56 | 0.00 | 83 | 1011.7 |
| 20260510105004 | 10 | 290 | 0.0 | 0.0 | 0.00 | 0.56 | 0.00 | 83 | 1011.7 |
| 20260510104505 | 10 | 290 | 0.0 | 0.0 | 0.00 | 0.56 | 0.00 | 83 | 1011.7 |
| 20260510104004 | 11 | 290 | 0.0 | 0.0 | 0.00 | 0.56 | 0.00 | 83 | 1011.5 |
| 20260510103504 | 11 | 290 | 0.0 | 0.0 | 0.00 | 0.56 | 0.00 | 83 | 1011.6 |
| 20260510103004 | 11 | 290 | 0.0 | 0.0 | 0.00 | 0.56 | 0.00 | 83 | 1011.5 |
| 20260510102504 | 10 | 290 | 0.0 | 0.0 | 0.00 | 0.56 | 0.00 | 83 | 1011.5 |
| 20260510102004 | 10 | 290 | 0.0 | 0.0 | 0.00 | 0.56 | 0.00 | 83 | 1011.5 |
| 20260510101505 | 10 | 290 | 0.0 | 0.0 | 0.00 | 0.56 | 0.00 | 83 | 1011.2 |
| 20260510101005 | 10 | 290 | 0.0 | 0.0 | 0.00 | 0.56 | 0.00 | 83 | 1011.4 |
| 20260510100504 | 10 | 290 | 0.0 | 0.0 | 0.00 | 0.56 | 0.00 | 83 | 1011.4 |
| 20260510095504 | 10 | 290 | 0.0 | 0.0 | 0.00 | 0.56 | 0.00 | 83 | 1011.6 |
| 20260510095004 | 10 | 290 | 0.0 | 0.0 | 0.00 | 0.56 | 0.00 | 83 | 1011.6 |
| 20260510094504 | 10 | 290 | 0.0 | 0.0 | 0.00 | 0.56 | 0.00 | 83 | 1011.5 |
| 20260510094004 | 10 | 290 | 0.0 | 0.0 | 0.00 | 0.56 | 0.00 | 83 | 1011.6 |
| 20260510093504 | 10 | 290 | 0.0 | 0.0 | 0.00 | 0.56 | 0.00 | 83 | 1011.6 |
| 20260510093005 | 10 | 290 | 0.0 | 0.0 | 0.00 | 0.56 | 0.00 | 83 | 1011.3 |
| 20260510092505 | 10 | 290 | 0.0 | 0.0 | 0.00 | 0.56 | 0.00 | 83 | 1011.4 |
| 20260510092004 | 10 | 290 | 0.0 | 0.0 | 0.00 | 0.56 | 0.00 | 83 | 1011.4 |
| 20260510091504 | 10 | 290 | 0.0 | 0.0 | 0.00 | 0.56 | 0.00 | 83 | 1011.3 |
| 20260510091004 | 10 | 290 | 0.0 | 0.0 | 0.00 | 0.56 | 0.00 | 83 | 1011.5 |
| 20260510090504 | 10 | 290 | 0.0 | 0.0 | 0.00 | 0.56 | 0.00 | 83 | 1011.8 |
| 20260510090004 | 10 | 290 | 0.0 | 0.0 | 0.00 | 0.56 | 0.00 | 83 | 1011.8 |
| 20260510085004 | 10 | 290 | 0.0 | 0.0 | 0.00 | 0.56 | 0.00 | 83 | 1011.8 |
| 20260510084504 | 10 | 290 | 0.0 | 0.0 | 0.00 | 0.56 | 0.00 | 83 | 1011.8 |
| 20260510084004 | 10 | 290 | 0.0 | 0.0 | 0.00 | 0.56 | 0.00 | 84 | 1011.9 |
| 20260510083504 | 10 | 290 | 0.0 | 1.6 | 0.00 | 0.56 | 0.00 | 84 | 1011.8 |
| 20260510083004 | 10 | 290 | 0.0 | 0.0 | 0.00 | 0.56 | 0.00 | 84 | 1011.8 |
| 20260510082003 | 10 | 290 | 0.0 | 0.0 | 0.00 | 0.56 | 0.00 | 84 | 1011.8 |
| 20260510081504 | 10 | 290 | 1.6 | 4.8 | 0.00 | 0.56 | 0.00 | 84 | 1011.7 |
| 20260510081004 | 10 | 25 | 1.6 | 4.8 | 0.00 | 0.56 | 0.00 | 84 | 1011.6 |
| 20260510080504 | 10 | 54 | 1.6 | 4.8 | 0.00 | 0.56 | 0.00 | 84 | 1011.2 |
| 20260510080004 | 10 | 53 | 1.6 | 12.9 | 0.00 | 0.56 | 0.00 | 84 | 1010.9 |
| 20260510075504 | 10 | 307 | 3.2 | 4.8 | 0.00 | 0.56 | 0.00 | 84 | 1010.9 |
| 20260510075004 | 10 | 273 | 0.0 | 0.0 | 0.00 | 0.56 | 0.00 | 84 | 1010.8 |
| 20260510074504 | 10 | 273 | 0.0 | 0.0 | 0.00 | 0.56 | 0.00 | 84 | 1010.8 |
| 20260510073504 | 10 | 273 | 0.0 | 0.0 | 0.00 | 0.56 | 0.00 | 84 | 1010.8 |
| 20260510073005 | 10 | 273 | 0.0 | 0.0 | 0.00 | 0.56 | 0.00 | 84 | 1010.7 |
| 20260510072504 | 10 | 273 | 0.0 | 0.0 | 0.00 | 0.56 | 0.00 | 84 | 1010.8 |
| 20260510072004 | 10 | 273 | 0.0 | 0.0 | 0.00 | 0.56 | 0.00 | 84 | 1010.7 |
| 20260510071504 | 10 | 273 | 0.0 | 0.0 | 0.00 | 0.56 | 0.00 | 84 | 1010.8 |
| 20260510071004 | 10 | 273 | 0.0 | 0.0 | 0.00 | 0.56 | 0.00 | 84 | 1010.8 |
| 20260510070504 | 10 | 273 | 0.0 | 0.0 | 0.00 | 0.56 | 0.00 | 84 | 1010.9 |
| 20260510070005 | 10 | 273 | 0.0 | 0.0 | 0.00 | 0.56 | 0.00 | 84 | 1010.8 |
| 20260510065504 | 10 | 273 | 0.0 | 0.0 | 0.00 | 0.56 | 0.00 | 84 | 1010.9 |
| 20260510065004 | 10 | 273 | 0.0 | 0.0 | 0.00 | 0.56 | 0.00 | 84 | 1011.0 |
| 20260510064504 | 10 | 273 | 0.0 | 0.0 | 0.00 | 0.56 | 0.00 | 84 | 1011.0 |
| 20260510064004 | 10 | 273 | 0.0 | 0.0 | 0.00 | 0.56 | 0.00 | 84 | 1010.9 |
| 20260510063004 | 10 | 273 | 0.0 | 0.0 | 0.00 | 0.56 | 0.00 | 84 | 1011.0 |
| 20260510062005 | 10 | 273 | 0.0 | 1.6 | 0.00 | 0.56 | 0.00 | 84 | 1010.9 |
| 20260510061504 | 10 | 273 | 1.6 | 4.8 | 0.00 | 0.56 | 0.00 | 84 | 1010.8 |
| 20260510061004 | 10 | 196 | 0.0 | 1.6 | 0.00 | 0.56 | 0.00 | 84 | 1010.8 |
| 20260510060504 | 10 | 196 | 0.0 | 3.2 | 0.00 | 0.56 | 0.00 | 84 | 1010.7 |
| 20260510060004 | 10 | 193 | 0.0 | 0.0 | 0.00 | 0.56 | 0.00 | 84 | 1010.6 |
| 20260510055504 | 10 | 193 | 0.0 | 1.6 | 0.00 | 0.56 | 0.00 | 84 | 1010.7 |
| 20260510055004 | 10 | 173 | 0.0 | 1.6 | 0.00 | 0.56 | 0.00 | 84 | 1010.8 |
| 20260510054504 | 10 | 173 | 1.6 | 3.2 | 0.00 | 0.56 | 0.00 | 84 | 1010.7 |
| 20260510054004 | 10 | 173 | 0.0 | 1.6 | 0.00 | 0.56 | 0.00 | 84 | 1010.8 |
| 20260510053504 | 10 | 173 | 0.0 | 0.0 | 0.00 | 0.56 | 0.00 | 84 | 1010.8 |
| 20260510053004 | 10 | 173 | 0.0 | 0.0 | 0.00 | 0.56 | 0.00 | 84 | 1010.8 |
| 20260510052503 | 10 | 173 | 0.0 | 0.0 | 0.00 | 0.56 | 0.00 | 84 | 1010.7 |
| 20260510052004 | 10 | 173 | 0.0 | 0.0 | 0.00 | 0.56 | 0.00 | 85 | 1010.7 |
| 20260510051504 | 10 | 173 | 0.0 | 0.0 | 0.00 | 0.56 | 0.00 | 85 | 1010.8 |
| 20260510051004 | 10 | 173 | 0.0 | 0.0 | 0.00 | 0.56 | 0.00 | 84 | 1010.8 |
| 20260510050504 | 10 | 173 | 0.0 | 0.0 | 0.00 | 0.56 | 0.00 | 85 | 1010.9 |
| 20260510050004 | 10 | 173 | 0.0 | 1.6 | 0.00 | 0.56 | 0.00 | 85 | 1011.0 |
| 20260510045504 | 9 | 173 | 0.0 | 1.6 | 0.00 | 0.56 | 0.00 | 84 | 1010.9 |
| 20260510045004 | 9 | 173 | 0.0 | 1.6 | 0.00 | 0.56 | 0.00 | 85 | 1010.9 |
| 20260510044504 | 9 | 173 | 0.0 | 1.6 | 0.03 | 0.56 | 0.00 | 85 | 1010.9 |
| 20260510044004 | 9 | 173 | 0.0 | 0.0 | 0.03 | 0.56 | 0.00 | 85 | 1010.9 |
| 20260510043504 | 9 | 173 | 0.0 | 0.0 | 0.03 | 0.56 | 0.00 | 85 | 1011.0 |
| 20260510043004 | 9 | 173 | 0.0 | 0.0 | 0.03 | 0.56 | 0.00 | 85 | 1011.0 |
| 20260510042504 | 9 | 173 | 0.0 | 0.0 | 0.03 | 0.56 | 0.00 | 85 | 1011.1 |
| 20260510042004 | 9 | 173 | 0.0 | 0.0 | 0.03 | 0.56 | 0.00 | 85 | 1011.1 |
| 20260510041004 | 9 | 173 | 0.0 | 0.0 | 0.03 | 0.56 | 0.00 | 85 | 1011.0 |
| 20260510040504 | 9 | 173 | 0.0 | 0.0 | 0.03 | 0.56 | 0.00 | 85 | 1010.9 |
| 20260510040005 | 9 | 173 | 0.0 | 0.0 | 0.03 | 0.56 | 0.00 | 85 | 1010.9 |
| 20260510035504 | 9 | 173 | 0.0 | 0.0 | 0.03 | 0.56 | 0.56 | 85 | 1010.8 |
| 20260510035004 | 9 | 173 | 0.0 | 0.0 | 0.03 | 0.56 | 0.56 | 85 | 1010.9 |
| 20260510034504 | 9 | 173 | 0.0 | 0.0 | 0.00 | 0.53 | 0.53 | 85 | 1010.9 |
| 20260510034004 | 9 | 173 | 0.0 | 0.0 | 0.00 | 0.53 | 0.53 | 85 | 1010.8 |
| 20260510033504 | 9 | 173 | 0.0 | 0.0 | 0.00 | 0.53 | 0.53 | 85 | 1010.7 |
| 20260510033004 | 9 | 173 | 0.0 | 0.0 | 0.00 | 0.53 | 0.53 | 85 | 1010.7 |
| 20260510032504 | 9 | 173 | 0.0 | 0.0 | 0.00 | 0.53 | 0.53 | 85 | 1010.6 |
| 20260510030504 | 10 | 173 | 0.0 | 0.0 | 0.00 | 0.53 | 0.53 | 85 | 1010.5 |
| 20260510030004 | 10 | 173 | 0.0 | 0.0 | 0.00 | 0.53 | 0.53 | 85 | 1010.5 |
| 20260510025504 | 10 | 173 | 0.0 | 0.0 | 0.00 | 0.53 | 0.53 | 85 | 1010.6 |
| 20260510025005 | 10 | 173 | 0.0 | 0.0 | 0.00 | 0.53 | 0.53 | 85 | 1010.5 |
| 20260510024004 | 10 | 173 | 0.0 | 0.0 | 0.00 | 0.53 | 0.53 | 85 | 1010.6 |
| 20260510023504 | 10 | 173 | 0.0 | 0.0 | 0.00 | 0.53 | 0.53 | 85 | 1010.6 |
| 20260510023004 | 10 | 173 | 0.0 | 0.0 | 0.00 | 0.53 | 0.53 | 85 | 1010.6 |
| 20260510022504 | 11 | 173 | 0.0 | 0.0 | 0.00 | 0.53 | 0.53 | 85 | 1010.7 |
| 20260510022004 | 10 | 173 | 0.0 | 0.0 | 0.00 | 0.53 | 0.53 | 85 | 1010.8 |
| 20260510021504 | 10 | 173 | 0.0 | 0.0 | 0.00 | 0.53 | 0.53 | 85 | 1010.8 |
| 20260510021004 | 10 | 173 | 0.0 | 0.0 | 0.00 | 0.53 | 0.53 | 85 | 1010.8 |
| 20260510020504 | 11 | 173 | 0.0 | 0.0 | 0.00 | 0.53 | 0.53 | 85 | 1010.9 |
| 20260510015504 | 11 | 173 | 0.0 | 0.0 | 0.00 | 0.53 | 0.53 | 85 | 1010.7 |
| 20260510015004 | 11 | 173 | 0.0 | 0.0 | 0.00 | 0.53 | 0.53 | 85 | 1010.6 |
| 20260510014504 | 11 | 173 | 0.0 | 0.0 | 0.00 | 0.53 | 0.53 | 85 | 1010.6 |
| 20260510013504 | 11 | 173 | 0.0 | 0.0 | 0.00 | 0.53 | 0.53 | 85 | 1010.7 |
| 20260510011004 | 12 | 173 | 0.0 | 0.0 | 0.00 | 0.53 | 0.53 | 85 | 1010.5 |
| 20260510010504 | 12 | 173 | 0.0 | 0.0 | 0.00 | 0.53 | 0.53 | 85 | 1010.4 |
| 20260510010004 | 12 | 173 | 0.0 | 0.0 | 0.00 | 0.53 | 0.53 | 85 | 1010.3 |
| 20260510005504 | 12 | 173 | 0.0 | 0.0 | 0.00 | 0.53 | 0.53 | 84 | 1010.2 |
| 20260510005004 | 12 | 173 | 0.0 | 0.0 | 0.00 | 0.53 | 0.53 | 84 | 1010.2 |
| 20260510004004 | 12 | 173 | 0.0 | 0.0 | 0.00 | 0.53 | 0.53 | 84 | 1010.0 |
| 20260510003504 | 12 | 173 | 0.0 | 0.0 | 0.00 | 0.53 | 0.53 | 84 | 1009.9 |
| 20260510003005 | 12 | 173 | 0.0 | 0.0 | 0.00 | 0.53 | 0.53 | 84 | 1009.8 |
| 20260510002504 | 12 | 173 | 0.0 | 0.0 | 0.00 | 0.53 | 0.53 | 84 | 1009.9 |
| 20260510002004 | 12 | 173 | 0.0 | 0.0 | 0.00 | 0.53 | 0.53 | 84 | 1009.9 |
| 20260510001504 | 12 | 173 | 0.0 | 0.0 | 0.00 | 0.53 | 0.53 | 85 | 1010.0 |
| 20260510001004 | 12 | 173 | 0.0 | 0.0 | 0.00 | 0.53 | 0.53 | 85 | 1010.1 |
| 20260510000505 | 12 | 173 | 0.0 | 1.6 | 0.00 | 0.53 | 0.53 | 84 | 1010.2 |
| 20260509235504 | 12 | 173 | 0.0 | 0.0 | 0.00 | 0.53 | 0.53 | 84 | 1010.1 |
| 20260509235004 | 12 | 173 | 0.0 | 0.0 | 0.00 | 0.53 | 0.53 | 84 | 1009.9 |
| 20260509234504 | 13 | 173 | 0.0 | 0.0 | 0.00 | 0.53 | 0.53 | 84 | 1009.8 |
| 20260509233504 | 13 | 173 | 0.0 | 0.0 | 0.00 | 0.53 | 0.53 | 84 | 1009.8 |
| 20260509233004 | 13 | 173 | 0.0 | 0.0 | 0.00 | 0.53 | 0.53 | 84 | 1009.8 |
| 20260509232004 | 13 | 173 | 0.0 | 0.0 | 0.00 | 0.53 | 0.53 | 83 | 1009.6 |
| 20260509231504 | 12 | 173 | 0.0 | 0.0 | 0.00 | 0.53 | 0.53 | 84 | 1009.7 |
| 20260509231004 | 12 | 173 | 0.0 | 3.2 | 0.00 | 0.53 | 0.53 | 84 | 1009.8 |
| 20260509230504 | 12 | 173 | 0.0 | 3.2 | 0.00 | 0.53 | 0.53 | 84 | 1009.8 |
| 20260509230004 | 12 | 263 | 0.0 | 4.8 | 0.00 | 0.53 | 0.53 | 84 | 1009.7 |
| 20260509225504 | 12 | 209 | 1.6 | 4.8 | 0.00 | 0.53 | 0.53 | 84 | 1009.7 |
| 20260509224504 | 12 | 114 | 0.0 | 4.8 | 0.00 | 0.53 | 0.53 | 84 | 1009.7 |
| 20260509224004 | 12 | 145 | 0.0 | 9.7 | 0.00 | 0.53 | 0.53 | 84 | 1009.9 |
| 20260509223504 | 12 | 184 | 1.6 | 4.8 | 0.00 | 0.53 | 0.53 | 84 | 1010.1 |
| 20260509223005 | 12 | 127 | 0.0 | 1.6 | 0.00 | 0.53 | 0.53 | 84 | 1010.2 |
| 20260509222504 | 12 | 127 | 0.0 | 1.6 | 0.00 | 0.53 | 0.53 | 84 | 1010.2 |
| 20260509221504 | 12 | 126 | 0.0 | 3.2 | 0.03 | 0.53 | 0.53 | 84 | 1010.1 |
| 20260509220504 | 12 | 126 | 0.0 | 1.6 | 0.10 | 0.53 | 0.53 | 84 | 1010.1 |
| 20260509220005 | 12 | 126 | 0.0 | 1.6 | 0.13 | 0.53 | 0.53 | 84 | 1010.1 |
| 20260509215504 | 12 | 126 | 0.0 | 1.6 | 0.13 | 0.53 | 0.53 | 84 | 1010.1 |
| 20260509215004 | 12 | 127 | 0.0 | 3.2 | 0.13 | 0.53 | 0.53 | 84 | 1010.1 |
| 20260509214504 | 12 | 134 | 0.0 | 3.2 | 0.15 | 0.53 | 0.53 | 84 | 1010.1 |
| 20260509213504 | 12 | 166 | 0.0 | 1.6 | 0.18 | 0.53 | 0.53 | 84 | 1010.3 |
| 20260509213005 | 12 | 74 | 1.6 | 3.2 | 0.20 | 0.53 | 0.53 | 85 | 1010.2 |
| 20260509212004 | 12 | 73 | 0.0 | 1.6 | 0.20 | 0.53 | 0.53 | 85 | 1010.0 |
| 20260509211504 | 12 | 8 | 0.0 | 1.6 | 0.20 | 0.51 | 0.51 | 85 | 1010.3 |
| 20260509211004 | 12 | 312 | 0.0 | 0.0 | 0.15 | 0.46 | 0.46 | 85 | 1010.1 |
| 20260509210004 | 12 | 312 | 0.0 | 0.0 | 0.10 | 0.41 | 0.41 | 85 | 1010.2 |
| 20260509205504 | 12 | 309 | 0.0 | 0.0 | 0.13 | 0.41 | 0.41 | 85 | 1010.3 |
| 20260509204504 | 12 | 311 | 0.0 | 0.0 | 0.13 | 0.38 | 0.38 | 85 | 1010.0 |
| 20260509204004 | 12 | 311 | 0.0 | 1.6 | 0.15 | 0.38 | 0.38 | 85 | 1009.9 |
| 20260509203504 | 13 | 311 | 0.0 | 4.8 | 0.13 | 0.36 | 0.36 | 85 | 1010.1 |
| 20260509203004 | 13 | 307 | 0.0 | 1.6 | 0.13 | 0.33 | 0.33 | 85 | 1010.1 |